sat.trackr.live / text

‹ back to catalog

KUIPER-00437

NORAD 68870 · 2026-095G

PAYLOAD ACTIVE UNKNOWN

§ Identity

Operator
Country
US
Launch date
2026-04-28
Launch site
AFETR
Launch vehicle
Mass (kg)
RCS (m²)

External: N2YO · Heavens-Above · Gunter

§ Orbital elements

Epoch: 2026-09-20T04:00:03.000096Z

Period
96.02 min
Inclination
51.8889°
Eccentricity
0.0009823
Mean motion
14.99676154 rev/d
Perigee alt
561.1 km
Apogee alt
574.7 km
Semi-major
6,946.0 km
B*
-3.3095e-3
RAAN
145.7249°
Arg perigee
286.4913°
Mean anomaly
214.0036°
Rev number
232

§ Raw data

KUIPER-004371 68870U 26095G   26263.16670139 -.00041331  00000+0 -33095-2 0  99982 68870  51.8889 145.7249 0009823 286.4913 214.0036 14.99676154  2322

JSON: /api/v1/satellites/68870 · /tle

For live sub-satellite position, see the globe view (requires WebGL).

§ Visibility from observer

Set your observer location to see the next 7 days of passes ≥ 10°. The values pass through the URL so the page stays shareable.

No JS? Fill the form by hand. The geolocation button needs JavaScript.